GW4886 Weather Reports


time (UTC)temp
C
wind
direction
speed
KPH
gust
KPH
rain 1hr
cm
rain 24hr
cm
rain mn
cm
humidity
%
barometer
mb
20260505034907 8 249 0.0 1.6 0.00 0.08 0.08 99 1014.3
20260505034403 7 260 0.0 3.2 0.00 0.08 0.08 99 1014.2
20260505033900 8 247 1.6 3.2 0.00 0.08 0.08 99 1014.3
20260505033356 7 316 1.6 4.8 0.00 0.08 0.08 99 1014.3
20260505032855 8 328 0.0 0.0 0.00 0.08 0.08 99 1014.2
20260505032351 8 287 1.6 1.6 0.00 0.08 0.08 99 1014.1
20260505031848 8 260 0.0 0.0 0.00 0.08 0.08 99 1014.3
20260505031345 8 244 0.0 3.2 0.00 0.08 0.08 99 1014.3
20260505030842 8 255 1.6 1.6 0.00 0.08 0.08 99 1014.3
20260505030338 8 305 1.6 1.6 0.00 0.08 0.08 99 1014.1
20260505025833 8 277 0.0 0.0 0.00 0.08 0.08 99 1014.2
20260505025331 8 255 0.0 3.2 0.00 0.08 0.08 99 1014.1
20260505024830 8 245 0.0 3.2 0.00 0.08 0.08 99 1014.5
20260505024327 8 258 1.6 3.2 0.00 0.08 0.08 99 1014.3
20260505023824 8 337 0.0 1.6 0.00 0.08 0.08 99 1014.3
20260505023321 8 284 0.0 1.6 0.00 0.08 0.08 99 1014.4
20260505022818 9 246 0.0 0.0 0.00 0.08 0.08 99 1014.3
20260505022315 9 292 1.6 4.8 0.00 0.08 0.08 99 1014.2
20260505021812 9 262 0.0 3.2 0.00 0.08 0.08 98 1014.1
20260505021309 9 261 0.0 1.6 0.00 0.08 0.08 98 1014.2
20260505020805 9 261 1.6 3.2 0.00 0.08 0.08 99 1014.0
20260505020300 9 261 0.0 0.0 0.00 0.08 0.08 98 1014.3
20260505015757 10 261 0.0 1.6 0.00 0.08 0.08 97 1014.0
20260505015254 10 262 0.0 0.0 0.00 0.08 0.08 97 1014.2
20260505014752 10 261 0.0 0.0 0.00 0.08 0.08 97 1014.3
20260505014249 10 261 0.0 1.6 0.00 0.08 0.08 96 1014.2
20260505013745 10 281 0.0 1.6 0.00 0.08 0.08 96 1014.2
20260505013242 10 256 0.0 0.0 0.00 0.08 0.08 95 1014.1
20260505012740 10 268 1.6 3.2 0.00 0.08 0.08 95 1014.2
20260505012237 10 253 0.0 1.6 0.00 0.08 0.08 94 1014.0
20260505011733 11 252 0.0 3.2 0.00 0.08 0.08 92 1013.9
20260505011231 11 266 0.0 1.6 0.00 0.08 0.08 94 1014.0
20260505010726 10 270 1.6 3.2 0.00 0.08 0.08 95 1014.1
20260505010222 11 262 1.6 3.2 0.00 0.08 0.08 94 1013.9
20260505005719 10 259 1.6 3.2 0.00 0.08 0.08 95 1013.6
20260505005216 11 252 0.0 0.0 0.00 0.08 0.08 96 1013.8
20260505004713 11 251 1.6 3.2 0.00 0.08 0.08 94 1013.9
20260505004209 11 246 3.2 4.8 0.00 0.08 0.08 93 1013.7
20260505003707 12 254 3.2 4.8 0.00 0.08 0.08 92 1013.6
20260505003205 12 255 0.0 1.6 0.00 0.08 0.08 92 1013.7
20260505002701 12 256 1.6 4.8 0.00 0.08 0.08 88 1013.7
20260505002159 11 257 6.4 6.4 0.00 0.08 0.08 91 1013.5
20260505001655 11 247 0.0 0.0 0.00 0.08 0.08 96 1013.4
20260505001153 11 247 0.0 3.2 0.00 0.08 0.08 96 1013.6
20260505000650 11 259 3.2 3.2 0.00 0.08 0.08 96 1013.4
20260505000148 12 265 3.2 4.8 0.00 0.08 0.08 95 1013.4
20260504235643 12 260 3.2 4.8 0.00 0.08 0.08 94 1013.6
20260504235140 12 268 1.6 3.2 0.00 0.08 0.08 93 1013.5
20260504234638 12 251 3.2 3.2 0.00 0.08 0.08 95 1013.4
20260504234135 13 257 1.6 1.6 0.00 0.08 0.08 94 1013.2
20260504233631 13 271 1.6 3.2 0.00 0.08 0.08 92 1013.4
20260504233126 13 279 3.2 3.2 0.00 0.08 0.08 93 1013.4
20260504232625 13 268 0.0 3.2 0.00 0.08 0.08 90 1013.4
20260504232121 14 261 3.2 4.8 0.00 0.08 0.08 88 1013.4
20260504231618 13 248 3.2 6.4 0.00 0.08 0.08 89 1013.4
20260504231114 14 272 4.8 4.8 0.00 0.08 0.08 86 1013.6
20260504230610 15 257 3.2 3.2 0.00 0.08 0.08 87 1013.4
20260504230110 14 257 3.2 4.8 0.00 0.08 0.08 86 1013.4
20260504225607 15 260 3.2 3.2 0.00 0.08 0.08 87 1013.7
20260504225103 15 271 3.2 3.2 0.00 0.08 0.08 87 1013.7
20260504224600 15 267 3.2 3.2 0.00 0.08 0.08 86 1013.6
20260504224057 16 282 4.8 4.8 0.00 0.08 0.08 82 1013.8
20260504223554 16 334 3.2 4.8 0.00 0.08 0.08 79 1013.8
20260504223050 16 347 3.2 4.8 0.00 0.08 0.08 78 1013.7
20260504222547 16 338 1.6 3.2 0.00 0.08 0.08 79 1013.7
20260504222044 17 13 3.2 4.8 0.00 0.08 0.08 79 1013.7
20260504221542 18 90 0.0 0.0 0.00 0.08 0.08 66 1013.8
20260504221038 18 83 0.0 0.0 0.00 0.08 0.08 70 1013.8
20260504220534 17 83 0.0 0.0 0.00 0.08 0.08 73 1014.0
20260504220032 17 83 1.6 1.6 0.00 0.08 0.08 71 1014.0
20260504215528 16 77 0.0 0.0 0.00 0.08 0.08 73 1014.0
20260504215026 16 73 1.6 3.2 0.00 0.08 0.08 74 1014.1
20260504214521 16 346 1.6 3.2 0.00 0.08 0.08 73 1014.0
20260504214018 16 285 3.2 3.2 0.00 0.08 0.08 74 1014.0
20260504213514 15 240 3.2 4.8 0.00 0.08 0.08 77 1014.0
20260504213012 14 257 0.0 1.6 0.00 0.08 0.08 84 1014.2
20260504212507 13 269 1.6 4.8 0.00 0.08 0.08 85 1014.1
20260504212005 13 258 3.2 4.8 0.00 0.08 0.08 93 1013.7
20260504211501 13 239 1.6 4.8 0.00 0.08 0.08 90 1013.7
20260504210959 12 317 4.8 9.7 0.00 0.08 0.08 89 1013.6
20260504210456 12 283 6.4 9.7 0.13 0.08 0.08 89 1013.2
20260504205952 12 178 4.8 4.8 0.13 0.08 0.08 90 1014.3
20260504205450 12 303 3.2 6.4 0.30 0.05 0.05 82 1015.3
20260504204948 13 265 6.4 16.1 0.30 0.05 0.05 82 1015.2
20260504204446 19 75 14.5 25.7 0.00 0.00 0.00 51 1014.7
20260504203945 19 258 1.6 4.8 0.00 0.00 0.00 46 1013.6
20260504203442 20 268 8.0 11.3 0.00 0.00 0.00 44 1013.1
20260504202938 20 231 4.8 14.5 0.00 0.00 0.00 43 1012.9
20260504202435 21 206 6.4 9.7 0.00 0.00 0.00 42 1013.0
20260504201932 21 343 4.8 11.3 0.00 0.00 0.00 44 1013.0
20260504201429 21 270 12.9 16.1 0.00 0.00 0.00 41 1013.4
20260504200927 21 185 6.4 20.9 0.00 0.00 0.00 42 1013.2
20260504200423 21 240 6.4 14.5 0.00 0.00 0.00 42 1013.1
20260504195920 21 292 6.4 12.9 0.00 0.00 0.00 47 1012.9
20260504195416 21 177 3.2 6.4 0.00 0.00 0.00 46 1013.0
20260504194912 21 308 11.3 14.5 0.00 0.00 0.00 44 1013.1
20260504194408 21 270 8.0 12.9 0.00 0.00 0.00 45 1013.4
20260504193904 21 336 3.2 12.9 0.00 0.00 0.00 45 1013.2
20260504193402 20 208 6.4 11.3 0.00 0.00 0.00 44 1013.5
20260504192900 20 295 3.2 12.9 0.00 0.00 0.00 43 1013.1
20260504192357 20 251 6.4 12.9 0.00 0.00 0.00 43 1013.5
20260504191856 20 277 3.2 3.2 0.00 0.00 0.00 49 1013.4
20260504191354 21 79 3.2 9.7 0.00 0.00 0.00 45 1013.5
20260504190849 20 127 8.0 12.9 0.00 0.00 0.00 43 1013.5
20260504190345 20 281 8.0 14.5 0.00 0.00 0.00 46 1013.6
20260504185841 20 300 4.8 16.1 0.00 0.00 0.00 50 1013.6
20260504185339 21 287 1.6 4.8 0.00 0.00 0.00 45 1013.4
20260504184834 20 297 0.0 4.8 0.00 0.00 0.00 45 1013.8
20260504184331 20 315 4.8 11.3 0.00 0.00 0.00 51 1013.9
20260504183827 20 63 3.2 4.8 0.00 0.00 0.00 51 1013.8
20260504183324 19 236 3.2 4.8 0.00 0.00 0.00 53 1014.1
20260504182822 20 290 4.8 14.5 0.00 0.00 0.00 46 1014.0
20260504182319 19 278 1.6 3.2 0.00 0.00 0.00 49 1014.3
20260504181816 18 251 9.7 12.9 0.00 0.00 0.00 50 1014.2
20260504181314 18 239 4.8 9.7 0.00 0.00 0.00 49 1014.1
20260504180812 18 138 14.5 16.1 0.00 0.00 0.00 50 1014.2
20260504180310 19 193 3.2 9.7 0.00 0.00 0.00 50 1014.4
20260504175808 18 145 6.4 9.7 0.00 0.00 0.00 49 1014.3
20260504175304 18 164 8.0 20.9 0.00 0.00 0.00 51 1014.5
20260504174803 17 319 4.8 9.7 0.00 0.00 0.00 52 1014.6
20260504174300 18 186 4.8 14.5 0.00 0.00 0.00 52 1014.6
20260504173756 17 209 6.4 14.5 0.00 0.00 0.00 52 1014.7
20260504173253 18 147 6.4 11.3 0.00 0.00 0.00 50 1014.6
20260504172750 18 236 1.6 4.8 0.00 0.00 0.00 55 1014.7
20260504172247 17 288 4.8 9.7 0.00 0.00 0.00 56 1015.1
20260504171743 17 216 8.0 22.5 0.00 0.00 0.00 51 1014.9
20260504171240 18 16 3.2 6.4 0.00 0.00 0.00 53 1015.2
20260504170737 17 291 4.8 9.7 0.00 0.00 0.00 49 1015.4
20260504170234 16 1 0.0 1.6 0.00 0.00 0.00 55 1015.5
20260504160153 13 284 0.0 3.2 0.00 0.00 0.00 57 1016.5
20260504151120 13 220 0.0 4.8 0.00 0.00 0.00 57 1016.8
20260504150618 13 226 3.2 9.7 0.00 0.00 0.00 56 1017.1
20260504150115 12 263 0.0 3.2 0.00 0.00 0.00 60 1017.0
20260504141043 11 279 4.8 6.4 0.00 0.00 0.00 57 1016.9
20260504140540 12 217 6.4 14.5 0.00 0.00 0.00 55 1017.0
20260504130504 9 63 0.0 3.2 0.00 0.00 0.00 78 1016.8
20260504110351 2 275 0.0 0.0 0.00 0.00 0.00 96 1017.0
20260504100309 3 315 0.0 0.0 0.00 0.00 0.00 95 1016.7
20260504081702 5 258 1.6 1.6 0.00 0.00 0.00 90 1016.8
20260504081158 5 258 0.0 0.0 0.00 0.00 0.00 91 1016.8
20260504080655 5 259 0.0 1.6 0.00 0.00 0.00 92 1016.8
20260504080152 5 259 1.6 1.6 0.00 0.00 0.00 92 1016.8
20260504070119 6 349 1.6 3.2 0.00 0.00 0.00 84 1017.3
20260504050508 6 303 0.0 0.0 0.00 0.00 0.00 81 1017.4
20260504050005 6 303 0.0 0.0 0.00 0.00 0.00 82 1017.3
20260504045500 6 303 0.0 0.0 0.00 0.00 0.00 81 1017.2
20260504044957 6 303 0.0 0.0 0.00 0.00 0.00 79 1017.2
20260504044454 6 303 0.0 0.0 0.00 0.00 0.00 80 1017.1
20260504043951 6 303 0.0 0.0 0.00 0.00 0.00 77 1017.2
20260504043448 6 304 0.0 1.6 0.00 0.00 0.00 81 1017.2
20260504042946 7 301 0.0 0.0 0.00 0.00 0.00 82 1017.1
20260504042442 7 301 0.0 0.0 0.00 0.00 0.00 76 1017.1
20260504041939 7 301 0.0 0.0 0.00 0.00 0.00 72 1017.0
20260504041435 7 301 0.0 1.6 0.00 0.00 0.00 66 1017.1
20260504040931 7 314 0.0 0.0 0.00 0.00 0.00 71 1017.0
20260504040429 7 348 0.0 0.0 0.00 0.00 0.00 67 1017.1
20260504035925 7 348 0.0 0.0 0.00 0.00 0.00 72 1017.2
20260504035423 7 348 0.0 0.0 0.00 0.00 0.00 69 1017.1